| time (UTC) | temp F | wind direction | speed knots | gust knots | rain 1hr in | rain 24hr in | rain mn in | humidity % | barometer mb |
| 20260505201017 | 80 | 259 | 5.2 | 15.6 | 259.92 | 0.00 | 0.00 | ||
| 20260505195517 | 81 | 212 | 5.2 | 13.0 | 259.92 | 0.00 | 0.00 | ||
| 20260505195017 | 80 | 290 | 7.0 | 17.4 | 259.92 | 0.00 | 0.00 | ||
| 20260505194017 | 80 | 294 | 5.2 | 13.9 | 259.92 | 0.00 | 0.00 | ||
| 20260505192017 | 79 | 276 | 6.1 | 18.2 | 259.92 | 0.00 | 0.00 | ||
| 20260505182017 | 81 | 255 | 4.3 | 9.6 | 259.92 | 0.00 | 0.00 | ||
| 20260505181018 | 84 | 284 | 7.0 | 24.3 | 259.92 | 0.00 | 0.00 | ||
| 20260505173017 | 82 | 281 | 5.2 | 14.8 | 259.92 | 0.00 | 0.00 | ||
| 20260505172017 | 82 | 256 | 4.3 | 12.2 | 259.92 | 0.00 | 0.00 | ||
| 20260505164017 | 82 | 245 | 3.5 | 8.7 | 259.92 | 0.00 | 0.00 | ||
| 20260505153017 | 78 | 118 | 3.5 | 11.3 | 259.92 | 0.00 | 0.00 | ||
| 20260505151517 | 78 | 255 | 4.3 | 8.7 | 259.92 | 0.00 | 0.00 | ||
| 20260505125017 | 63 | 295 | 3.5 | 7.8 | 259.92 | 0.00 | 0.00 | ||
| 20260505124017 | 63 | 259 | 2.6 | 7.8 | 259.92 | 0.00 | 0.00 | ||
| 20260505122017 | 63 | 326 | 1.7 | 7.8 | 259.92 | 0.00 | 0.00 | ||
| 20260505115017 | 58 | 291 | 2.6 | 5.2 | 259.92 | 0.00 | 0.00 | ||
| 20260505111517 | 55 | 246 | 1.7 | 4.3 | 259.92 | 0.00 | 0.00 | ||
| 20260505111017 | 55 | 229 | 1.7 | 6.1 | 259.92 | 0.00 | 0.00 | ||
| 20260505102017 | 53 | 269 | 0.9 | 5.2 | 259.92 | 0.00 | 0.00 | ||
| 20260505093517 | 53 | 228 | 2.6 | 4.3 | 259.92 | 0.00 | 0.00 | ||
| 20260505093017 | 53 | 249 | 2.6 | 3.5 | 259.92 | 0.00 | 0.00 | ||
| 20260505092517 | 53 | 217 | 2.6 | 6.1 | 259.92 | 0.00 | 0.00 | ||
| 20260505092017 | 53 | 259 | 1.7 | 4.3 | 259.92 | 0.00 | 0.00 | ||
| 20260505091017 | 54 | 288 | 2.6 | 5.2 | 259.92 | 0.00 | 0.00 | ||
| 20260505090517 | 53 | 291 | 2.6 | 7.0 | 259.92 | 0.00 | 0.00 | ||
| 20260505085017 | 53 | 256 | 2.6 | 5.2 | 259.92 | 0.00 | 0.00 | ||
| 20260505084017 | 53 | 271 | 2.6 | 6.1 | 259.92 | 0.00 | 0.00 | ||
| 20260505083518 | 54 | 276 | 2.6 | 7.0 | 259.92 | 0.00 | 0.00 | ||
| 20260505082517 | 53 | 257 | 5.2 | 9.6 | 259.92 | 0.00 | 0.00 | ||
| 20260505081017 | 52 | 287 | 4.3 | 7.8 | 259.92 | 0.00 | 0.00 | ||
| 20260505075017 | 54 | 267 | 4.3 | 7.8 | 259.92 | 0.00 | 0.00 | ||
| 20260505074017 | 54 | 250 | 4.3 | 8.7 | 259.92 | 0.00 | 0.00 | ||
| 20260505073017 | 54 | 267 | 5.2 | 8.7 | 259.92 | 0.00 | 0.00 | ||
| 20260505072517 | 54 | 262 | 5.2 | 10.4 | 259.92 | 0.00 | 0.00 | ||
| 20260505072017 | 54 | 284 | 6.1 | 10.4 | 259.92 | 0.00 | 0.00 | ||
| 20260505071017 | 54 | 267 | 6.1 | 12.2 | 259.92 | 0.00 | 0.00 | ||
| 20260505070517 | 54 | 264 | 5.2 | 10.4 | 259.92 | 0.00 | 0.00 | ||
| 20260505065017 | 55 | 278 | 4.3 | 12.2 | 259.92 | 0.00 | 0.00 | ||
| 20260505064517 | 55 | 278 | 5.2 | 9.6 | 259.92 | 0.00 | 0.00 | ||
| 20260505062518 | 55 | 288 | 6.1 | 15.6 | 259.92 | 0.00 | 0.00 | ||
| 20260505062017 | 54 | 285 | 5.2 | 12.2 | 259.92 | 0.00 | 0.00 | ||
| 20260505061517 | 55 | 257 | 6.1 | 12.2 | 259.92 | 0.00 | 0.00 | ||
| 20260505061018 | 55 | 295 | 6.1 | 13.9 | 259.92 | 0.00 | 0.00 | ||
| 20260505060517 | 55 | 229 | 5.2 | 12.2 | 259.92 | 0.00 | 0.00 | ||
| 20260505060017 | 54 | 291 | 5.2 | 13.9 | 259.92 | 0.00 | 0.00 | ||
| 20260505055518 | 54 | 260 | 5.2 | 9.6 | 259.92 | 0.00 | 0.00 | ||
| 20260505054018 | 54 | 169 | 4.3 | 7.8 | 259.92 | 0.00 | 0.00 | ||
| 20260505052517 | 54 | 226 | 5.2 | 10.4 | 259.92 | 0.00 | 0.00 | ||
| 20260505051018 | 55 | 302 | 4.3 | 8.7 | 259.92 | 0.00 | 0.00 | ||
| 20260505040518 | 56 | 266 | 4.3 | 7.8 | 259.92 | 0.00 | 0.00 | ||
| 20260505035018 | 57 | 249 | 4.3 | 7.0 | 259.92 | 0.00 | 0.00 | ||
| 20260505033017 | 58 | 248 | 3.5 | 6.1 | 259.92 | 0.00 | 0.00 | ||
| 20260505032517 | 58 | 232 | 3.5 | 7.0 | 259.92 | 0.00 | 0.00 | ||
| 20260505032017 | 58 | 249 | 4.3 | 11.3 | 259.92 | 0.00 | 0.00 | ||
| 20260505024517 | 60 | 238 | 2.6 | 6.1 | 259.92 | 0.00 | 0.00 | ||
| 20260505024018 | 59 | 225 | 2.6 | 7.0 | 259.92 | 0.00 | 0.00 | ||
| 20260505022518 | 59 | 271 | 3.5 | 7.8 | 259.92 | 0.00 | 0.00 | ||
| 20260505021518 | 59 | 266 | 1.7 | 9.6 | 259.92 | 0.00 | 0.00 | ||
| 20260505021018 | 60 | 239 | 2.6 | 5.2 | 259.92 | 0.00 | 0.00 | ||
| 20260505020517 | 59 | 269 | 2.6 | 8.7 | 259.92 | 0.00 | 0.00 | ||
| 20260505015518 | 60 | 253 | 1.7 | 7.0 | 259.92 | 0.00 | 0.00 | ||
| 20260505015018 | 60 | 249 | 2.6 | 7.0 | 259.92 | 0.00 | 0.00 | ||
| 20260505012518 | 61 | 226 | 1.7 | 5.2 | 259.92 | 0.00 | 0.00 | ||
| 20260505012018 | 60 | 242 | 2.6 | 7.8 | 259.92 | 0.00 | 0.00 | ||
| 20260505011018 | 61 | 212 | 2.6 | 6.1 | 259.92 | 0.00 | 0.00 | ||
| 20260505002518 | 61 | 264 | 3.5 | 13.0 | 259.92 | 0.00 | 0.00 | ||
| 20260505002018 | 61 | 319 | 3.5 | 7.0 | 259.92 | 0.00 | 0.00 | ||
| 20260505001018 | 61 | 262 | 3.5 | 9.6 | 259.92 | 0.00 | 0.00 | ||
| 20260504235018 | 61 | 291 | 3.5 | 7.8 | 259.92 | 0.00 | 0.00 | ||
| 20260504233518 | 62 | 288 | 2.6 | 7.0 | 259.92 | 0.00 | 0.00 | ||
| 20260504224519 | 65 | 270 | 5.2 | 11.3 | 259.92 | 0.00 | 0.00 | ||
| 20260504224018 | 66 | 287 | 2.6 | 11.3 | 259.92 | 0.00 | 0.00 | ||
| 20260504223018 | 66 | 283 | 4.3 | 10.4 | 259.92 | 0.00 | 0.00 | ||
| 20260504222018 | 66 | 273 | 3.5 | 9.6 | 259.92 | 0.00 | 0.00 | ||
| 20260504215518 | 67 | 270 | 6.1 | 13.0 | 259.92 | 0.00 | 0.00 | ||
| 20260504213518 | 68 | 297 | 7.0 | 15.6 | 259.92 | 0.00 | 0.00 | ||
| 20260504213018 | 68 | 309 | 6.1 | 13.9 | 259.92 | 0.00 | 0.00 | ||
| 20260504212518 | 69 | 281 | 4.3 | 7.8 | 259.92 | 0.00 | 0.00 | ||
| 20260504211018 | 68 | 293 | 3.5 | 8.7 | 259.92 | 0.00 | 0.00 | ||
| 20260504205518 | 69 | 269 | 4.3 | 12.2 | 259.92 | 0.00 | 0.00 | ||
| 20260504202519 | 70 | 274 | 5.2 | 11.3 | 259.92 | 0.00 | 0.00 | ||
| 20260504202018 | 69 | 301 | 7.8 | 16.5 | 259.92 | 0.00 | 0.00 | ||
| 20260504201518 | 69 | 288 | 7.8 | 16.5 | 259.92 | 0.00 | 0.00 |